Home   Weather   Ciudad del Este   Past weeks

Flag for Paraguay Past Weather in Ciudad del Este, Paraguay — Yesterday and Last 2 Weeks

Now
45 °F

Light fog.


Feels Like: 45 °F
Forecast: 46 / 66 °F
Wind: 2 mph from Southeast

Location: Foz Do Iguacu Aeroporto

Current Time: Apr 27, 2017 at 7:11:08 am

Latest Report: Apr 27, 2017 at 6:00 am


Visibility: N/A

Pressure: 30.15 "Hg

Humidity: 100%

Dew Point: 45 °F

Location of Ciudad del EsteLocation

Past Weather in Ciudad del Este — Graph

°F

Ciudad del Este Temperature Yesterday

Maximum temperature yesterday: 70 °F (at 12:00 am)
Minimum temperature yesterday: 52 °F (at 10:00 pm)
Average temperature yesterday: 63 °F

High & Low Weather Summary for the Past Weeks

 TemperatureHumidityPressure
High81 °F (Apr 19, 12:00 pm)100% (Apr 20, 3:00 am)30.15 "Hg (Apr 20, 3:00 am)
Low45 °F (Apr 27, 4:00 am)54% (Apr 19, 12:00 pm)29.59 "Hg (Apr 25, 6:30 pm)
Average68 °F86%29.92 "Hg
* Reported Apr 19 3:00 am — Apr 27 6:00 am, Ciudad del Este, Weather by CustomWeather, © 2017

Note: Actual official high and low records may vary slightly from our data, if they occured in-between our weather recording intervals... More about our weather records

Advertising

Ciudad del Este Weather History for the Previous 24 Hours

Scroll right to see more
 ConditionsComfort  
Time TempWeatherWind HumidityBarometerVisibility
6:00 am
Thu, Apr 27
45 °FLight fog.2 mph100%30.15 "HgN/A
5:00 am45 °FClear.2 mph100%30.15 "Hg10 mi
4:00 am45 °FClear.2 mph100%30.15 "Hg10 mi
3:00 am46 °FClear.1 mph100%30.15 "Hg10 mi
2:00 am46 °FClear.2 mph100%30.12 "Hg10 mi
1:00 am48 °FClear.2 mph94%30.12 "Hg10 mi
12:00 am48 °FClear.No wind100%30.12 "Hg10 mi
11:00 pm
Wed, Apr 26
52 °FClear.2 mph88%30.12 "Hg10 mi
10:00 pm52 °FClear.3 mph94%30.09 "Hg10 mi
9:00 pm54 °FPassing clouds.3 mph94%30.07 "HgN/A
8:00 pm54 °FPassing clouds.3 mph94%30.04 "HgN/A
7:00 pm55 °FPassing clouds.2 mph94%30.01 "HgN/A
6:00 pm57 °FPassing clouds.2 mph88%29.98 "HgN/A
5:00 pm63 °FPassing clouds.2 mph73%29.95 "HgN/A
4:00 pm66 °FScattered clouds.3 mph60%29.95 "HgN/A
3:00 pm68 °FScattered clouds.5 mph60%29.92 "HgN/A
2:00 pm68 °FScattered clouds.6 mph60%29.92 "HgN/A
1:00 pm68 °FPartly sunny.5 mph64%29.92 "HgN/A
12:00 pm68 °FPartly sunny.8 mph64%29.92 "HgN/A
11:00 am66 °FPartly sunny.7 mph68%29.95 "HgN/A
10:00 am66 °FPartly sunny.9 mph73%29.92 "HgN/A
9:00 am64 °FPartly sunny.9 mph78%29.92 "HgN/A
8:00 am64 °FScattered clouds.9 mph83%29.89 "HgN/A
7:00 am63 °FScattered clouds.7 mph94%29.92 "HgN/A
Weather by CustomWeather, © 2017

See weather overviewHow to use our weather pages